Flag for West Bank Weather past 2 weeks in Tulkarm, West Bank

Now
79 °F

Passing clouds.


Feels Like: 81 °F
Forecast: 72 / 88 °F
Wind: 9 mph from North

Location: Dov Airport

Current Time: Sep 30, 2014 at 9:41:16 PM

Latest Report: Sep 30, 2014 at 8:50 PM


Visibility: N/A

Pressure: 29.95 "Hg

Humidity: 61%

Dew point: 64 °F

Location of TulkarmLocation

Historic Weather in Tulkarm — Graph

°F

Tulkarm temperature yesterday

Maximum temperature yesterday: 82 °F (at 12:50 PM)
Minimum temperature yesterday: 75 °F (at 7:50 AM)
Average temperature yesterday: 80 °F

Past Weeks' High & Low Weather Summary

 TemperatureHumidityPressure
High91 °F (Sep 17, 3:50 PM)78% (Sep 16, 5:50 AM)29.98 "Hg (Sep 16, 5:50 AM)
Low70 °F (Sep 30, 5:50 AM)31% (Sep 17, 9:50 AM)29.68 "Hg (Sep 17, 3:50 PM)
Average82 °F61%29.88 "Hg
* Reported Sep 15 7:50 PM — Sep 30 7:50 PM, Tulkarm, Weather by CustomWeather, © 2014

Note: Actual official high and low records may vary slightly from our data, if they occured in-between our weather recording intervals... More about our weather records

Advertising

Tulkarm weather history for previous 24 hours

 ConditionsComfort  
Time TempWeatherWind HumidityBarometerVisibility
7:50 PM
Sep 30
79 °FPassing clouds.9 mph58%29.92 "HgN/A
6:50 PM79 °FPassing clouds.12 mph58%29.92 "HgN/A
5:50 PM81 °FPassing clouds.14 mph58%29.92 "HgN/A
4:50 PM82 °FPassing clouds.13 mph51%29.92 "HgN/A
3:50 PM82 °FPassing clouds.14 mph51%29.92 "HgN/A
2:50 PM82 °FPassing clouds.13 mph48%29.92 "HgN/A
1:50 PM82 °FPassing clouds.9 mph55%29.92 "HgN/A
12:50 PM82 °FPassing clouds.9 mph55%29.95 "HgN/A
11:50 AM81 °FPassing clouds.8 mph58%29.95 "HgN/A
10:50 AM81 °FPassing clouds.8 mph58%29.95 "HgN/A
9:50 AM81 °FPassing clouds.3 mph54%29.95 "HgN/A
8:50 AM79 °FPassing clouds.3 mph54%29.95 "HgN/A
7:50 AM73 °FPassing clouds.5 mph65%29.95 "HgN/A
6:50 AM70 °FPassing clouds.6 mph69%29.92 "HgN/A
5:50 AM70 °FClear.6 mph69%29.92 "Hg10 mi
10:50 PM
Sep 29
77 °FPassing clouds.No wind57%29.98 "HgN/A
9:50 PM77 °FPassing clouds.5 mph61%29.98 "HgN/A
Weather by CustomWeather, © 2014

See weather overviewHow to use our weather pages